• In Hungary
  • List of Countries
  • For 7 days
  • Water Temperature
  • Satellite Maps
  • Weather Map
  • News
  • Weather Widgets
  • user-avatar
    Login

    Hourly Weather Koulamoutou

    Today, 24 November, Friday

    Time Temperature Precipitation Wind Pressure Humidity
    00:00 +22°C° 0.1 mm 0 mps 733 mmHg 96%
    01:00 +24°C° 0 mm 1 mps 733 mmHg 96%
    02:00 +24°C° 0.2 mm 1 mps 733 mmHg 97%
    03:00 +24°C° 0.2 mm 1 mps 733 mmHg 97%
    04:00 +24°C° 0.2 mm 1 mps 733 mmHg 97%
    05:00 +24°C° 0.1 mm 1 mps 733 mmHg 96%
    06:00 +24°C° 0.1 mm 1 mps 733 mmHg 96%
    07:00 +24°C° 0.1 mm 1 mps 733 mmHg 95%
    08:00 +27°C° 0.1 mm 1 mps 734 mmHg 84%
    09:00 +29°C° 0.1 mm 1 mps 734 mmHg 73%
    10:00 +31°C° 0.1 mm 1 mps 734 mmHg 62%
    11:00 +32°C° 0.6 mm 1 mps 733 mmHg 62%
    12:00 +32°C° 0.6 mm 1 mps 733 mmHg 62%
    13:00 +33°C° 0.6 mm 1 mps 732 mmHg 62%
    14:00 +32°C° 1.3 mm 1 mps 732 mmHg 70%
    15:00 +30°C° 1.3 mm 1 mps 731 mmHg 79%
    16:00 +29°C° 1.3 mm 1 mps 731 mmHg 87%
    17:00 +28°C° 1.2 mm 1 mps 731 mmHg 90%
    18:00 +26°C° 1.2 mm 1 mps 731 mmHg 92%
    19:00 +25°C° 1.2 mm 1 mps 732 mmHg 95%
    20:00 +25°C° 1 mm 1 mps 733 mmHg 95%
    21:00 +25°C° 1 mm 1 mps 733 mmHg 96%
    22:00 +24°C° 1 mm 1 mps 734 mmHg 96%
    23:00 +24°C° 0.6 mm 1 mps 734 mmHg 96%

    Tomorrow, 25 November, Saturday

    Time Temperature Precipitation Wind Pressure Humidity
    00:00 +24°C° 0.6 mm 1 mps 734 mmHg 96%
    01:00 +24°C° 0.6 mm 1 mps 734 mmHg 97%
    02:00 +24°C° 0.3 mm 1 mps 734 mmHg 97%
    03:00 +24°C° 0.3 mm 1 mps 733 mmHg 97%
    04:00 +24°C° 0.3 mm 1 mps 733 mmHg 98%
    05:00 +24°C° 0.1 mm 1 mps 733 mmHg 97%
    06:00 +24°C° 0.1 mm 1 mps 733 mmHg 97%
    07:00 +24°C° 0.1 mm 1 mps 734 mmHg 96%
    08:00 +26°C° 0.1 mm 1 mps 734 mmHg 86%
    09:00 +28°C° 0.1 mm 1 mps 734 mmHg 76%
    10:00 +30°C° 0.1 mm 1 mps 735 mmHg 66%
    11:00 +31°C° 0.1 mm 1 mps 734 mmHg 61%
    12:00 +32°C° 0.1 mm 1 mps 734 mmHg 57%
    13:00 +34°C° 0.1 mm 2 mps 733 mmHg 53%
    14:00 +32°C° 0.4 mm 1 mps 732 mmHg 58%
    15:00 +32°C° 0.4 mm 1 mps 732 mmHg 63%
    16:00 +31°C° 0.4 mm 1 mps 731 mmHg 69%
    17:00 +29°C° 0.2 mm 1 mps 732 mmHg 75%
    18:00 +27°C° 0.2 mm 1 mps 732 mmHg 82%
    19:00 +24°C° 0.2 mm 0 mps 733 mmHg 89%
    20:00 +23°C° 0.4 mm 0 mps 733 mmHg 91%
    21:00 +23°C° 0.4 mm 0 mps 734 mmHg 93%
    22:00 +23°C° 0.4 mm 0 mps 734 mmHg 95%
    23:00 +23°C° 0.2 mm 0 mps 734 mmHg 96%

    Day after tomorrow, 26 November, Sunday

    Time Temperature Precipitation Wind Pressure Humidity
    00:00 +22°C° 0.2 mm 0 mps 734 mmHg 97%
    01:00 +24°C° 0.2 mm 1 mps 734 mmHg 97%
    02:00 +24°C° 0.2 mm 1 mps 733 mmHg 97%
    03:00 +24°C° 0.2 mm 1 mps 733 mmHg 97%
    04:00 +24°C° 0.2 mm 1 mps 732 mmHg 97%
    05:00 +24°C° 0.1 mm 1 mps 733 mmHg 97%
    06:00 +24°C° 0.1 mm 1 mps 733 mmHg 97%
    07:00 +22°C° 0.1 mm 0 mps 734 mmHg 97%
    08:00 +24°C° 0.1 mm 0 mps 734 mmHg 86%
    09:00 +28°C° 0.1 mm 1 mps 735 mmHg 75%
    10:00 +31°C° 0.1 mm 1 mps 735 mmHg 64%
    11:00 +31°C° 0.4 mm 1 mps 734 mmHg 65%
    12:00 +31°C° 0.4 mm 1 mps 734 mmHg 65%
    13:00 +32°C° 0.4 mm 1 mps 733 mmHg 66%
    14:00 +31°C° 0.9 mm 1 mps 733 mmHg 73%
    15:00 +30°C° 0.9 mm 1 mps 732 mmHg 79%
    16:00 +27°C° 0.9 mm 0 mps 732 mmHg 86%
    17:00 +26°C° 0.6 mm 0 mps 732 mmHg 89%
    18:00 +24°C° 0.6 mm 0 mps 733 mmHg 92%
    19:00 +23°C° 0.6 mm 0 mps 734 mmHg 95%
    20:00 +23°C° 0.1 mm 0 mps 734 mmHg 96%
    21:00 +25°C° 0.1 mm 1 mps 735 mmHg 96%
    22:00 +24°C° 0.1 mm 1 mps 735 mmHg 96%
    23:00 +24°C° 0 mm 1 mps 735 mmHg 96%

    27 November, Monday

    Time Temperature Precipitation Wind Pressure Humidity
    00:00 +24°C° 0 mm 1 mps 734 mmHg 97%
    01:00 +24°C° 0 mm 1 mps 734 mmHg 97%
    02:00 +23°C° 0 mm 1 mps 734 mmHg 97%
    03:00 +23°C° 0 mm 1 mps 734 mmHg 98%
    04:00 +23°C° 0 mm 1 mps 733 mmHg 98%
    05:00 +23°C° 0 mm 1 mps 734 mmHg 97%
    06:00 +23°C° 0 mm 1 mps 734 mmHg 96%
    07:00 +24°C° 0 mm 1 mps 734 mmHg 95%
    08:00 +27°C° 0 mm 1 mps 735 mmHg 81%
    09:00 +30°C° 0 mm 1 mps 735 mmHg 68%
    10:00 +31°C° 0 mm 0 mps 735 mmHg 54%
    11:00 +32°C° 0 mm 0 mps 734 mmHg 49%
    12:00 +33°C° 0 mm 0 mps 733 mmHg 44%
    13:00 +35°C° 0 mm 0 mps 732 mmHg 39%
    14:00 +36°C° 0 mm 1 mps 732 mmHg 43%
    15:00 +34°C° 0 mm 1 mps 731 mmHg 47%
    16:00 +33°C° 0 mm 1 mps 731 mmHg 50%
    17:00 +31°C° 0.2 mm 1 mps 732 mmHg 59%
    18:00 +29°C° 0.2 mm 1 mps 732 mmHg 68%
    19:00 +27°C° 0.2 mm 1 mps 733 mmHg 78%
    20:00 +26°C° 0.7 mm 1 mps 733 mmHg 83%
    21:00 +25°C° 0.7 mm 1 mps 734 mmHg 89%
    22:00 +24°C° 0.7 mm 1 mps 734 mmHg 95%
    23:00 +24°C° 0.3 mm 1 mps 734 mmHg 96%

    28 November, Tuesday

    Time Temperature Precipitation Wind Pressure Humidity
    00:00 +24°C° 0.3 mm 1 mps 734 mmHg 96%
    01:00 +24°C° 0.3 mm 1 mps 734 mmHg 96%
    02:00 +24°C° 0.3 mm 1 mps 733 mmHg 96%
    03:00 +23°C° 0.3 mm 1 mps 733 mmHg 97%
    04:00 +23°C° 0.3 mm 1 mps 733 mmHg 97%
    05:00 +24°C° 0 mm 1 mps 733 mmHg 96%
    06:00 +24°C° 0 mm 1 mps 734 mmHg 95%
    07:00 +22°C° 0 mm 0 mps 734 mmHg 94%
    08:00 +25°C° 0.3 mm 0 mps 734 mmHg 84%
    09:00 +27°C° 0.3 mm 0 mps 735 mmHg 75%
    10:00 +30°C° 0.3 mm 0 mps 735 mmHg 65%
    11:00 +31°C° 0.1 mm 0 mps 734 mmHg 59%
    12:00 +33°C° 0.1 mm 0 mps 733 mmHg 52%
    13:00 +34°C° 0.1 mm 0 mps 732 mmHg 45%
    14:00 +33°C° 0.2 mm 0 mps 732 mmHg 51%
    15:00 +32°C° 0.2 mm 0 mps 731 mmHg 56%
    16:00 +32°C° 0.2 mm 1 mps 731 mmHg 61%
    17:00 +30°C° 0.9 mm 1 mps 731 mmHg 71%
    18:00 +28°C° 0.9 mm 1 mps 732 mmHg 81%
    19:00 +26°C° 0.9 mm 1 mps 732 mmHg 92%
    20:00 +25°C° 1.3 mm 1 mps 733 mmHg 93%
    21:00 +25°C° 1.3 mm 1 mps 733 mmHg 94%
    22:00 +25°C° 1.3 mm 1 mps 734 mmHg 96%
    23:00 +25°C° 1 mm 1 mps 733 mmHg 96%

    29 November, Wednesday

    Time Temperature Precipitation Wind Pressure Humidity
    00:00 +25°C° 1 mm 1 mps 733 mmHg 96%
    01:00 +24°C° 1 mm 1 mps 733 mmHg 96%
    02:00 +24°C° 0 mm 1 mps 733 mmHg 97%
    03:00 +24°C° 0 mm 1 mps 733 mmHg 97%
    04:00 +24°C° 0 mm 1 mps 733 mmHg 97%
    05:00 +24°C° 0 mm 1 mps 733 mmHg 96%
    06:00 +24°C° 0 mm 1 mps 733 mmHg 95%
    07:00 +23°C° 0 mm 0 mps 734 mmHg 95%
    08:00 +27°C° 0.3 mm 1 mps 734 mmHg 86%
    09:00 +29°C° 0.3 mm 1 mps 734 mmHg 78%
    10:00 +31°C° 0.3 mm 1 mps 734 mmHg 69%
    11:00 +32°C° 0.5 mm 1 mps 733 mmHg 65%
    12:00 +33°C° 0.5 mm 1 mps 733 mmHg 60%
    13:00 +32°C° 0.5 mm 0 mps 732 mmHg 55%
    14:00 +31°C° 0.5 mm 0 mps 731 mmHg 63%
    15:00 +31°C° 0.5 mm 1 mps 731 mmHg 70%
    16:00 +30°C° 0.5 mm 1 mps 730 mmHg 78%
    17:00 +28°C° 1.1 mm 1 mps 731 mmHg 83%
    18:00 +27°C° 1.1 mm 1 mps 732 mmHg 89%
    19:00 +25°C° 1.1 mm 1 mps 732 mmHg 95%
    20:00 +25°C° 0.6 mm 1 mps 733 mmHg 95%
    21:00 +25°C° 0.6 mm 1 mps 733 mmHg 96%
    22:00 +25°C° 0.6 mm 1 mps 734 mmHg 96%
    23:00 +24°C° 0.8 mm 1 mps 734 mmHg 96%
    Show more